Hourly Data Report for October 23, 2015

All times are specified in Local Standard Time (LST). Add 1 hour to adjust for Daylight Saving Time where and when it is observed.

CHARLOTTETOWN A
PRINCE EDWARD ISLAND

46°17'21.000" N
63°07'09.000" W
48.50 m
8300301
71706
YYG

Download Data

Hourly Data (October 2015)
Hourly Data Report for October 23, 2015
Temp Definition
°C
Dew Point Temp Definition
°C
Rel Hum Definition
%
Wind Dir Definition
10's deg

Wind Spd Definition
km/h
Visibility Definition
km
Stn Press Definition
kPa
Hmdx Definition


Wind Chill Definition


Weather Definition


TIME
00:00 Legend Double Dagger 12.6 12.0 96 18 22 24.1 100.40     Rain Showers
01:00 Legend Double Dagger 12.5 11.9 96 20 20 24.1 100.33     Rain Showers
02:00 Legend Double Dagger 12.6 12.1 97 21 17 24.1 100.25     Rain Showers
03:00 Legend Double Dagger 12.4 11.6 95 26 15 24.1 100.19     Rain Showers
04:00 Legend Double Dagger 11.8 10.7 93 27 18 24.1 100.22     LegendNANA
05:00 Legend Double Dagger 9.5 8.4 93 32 17 24.1 100.24     Mostly Cloudy
06:00 Legend Double Dagger 8.2 6.7 90 30 17 24.1 100.36     LegendNANA
07:00 Legend Double Dagger 7.4 5.2 86 30 18 24.1 100.42     LegendNANA
08:00 Legend Double Dagger 7.1 4.4 83 30 18 24.1 100.50     Cloudy
09:00 Legend Double Dagger 6.8 3.1 77 29 21 24.1 100.60     LegendNANA
10:00 Legend Double Dagger 7.1 2.8 74 30 21 24.1 100.65     LegendNANA
11:00 Legend Double Dagger 7.1 2.8 74 28 22 24.1 100.73     Mostly Cloudy
12:00 Legend Double Dagger 7.5 1.8 67 30 21 24.1 100.76     LegendNANA
13:00 Legend Double Dagger 7.5 1.8 67 30 20 24.1 100.83     LegendNANA
14:00 Legend Double Dagger 7.5 2.0 68 31 22 24.1 100.88     Mostly Cloudy
15:00 Legend Double Dagger 6.4 4.1 85 30 17 19.3 100.97     Rain Showers
16:00 Legend Double Dagger 6.8 5.1 89 32 12 19.3 101.08     Rain Showers
17:00 Legend Double Dagger 6.6 3.6 81 33 19 24.1 101.17     Mostly Cloudy
18:00 Legend Double Dagger 5.6 2.6 81 34 29 19.3 101.33     Rain Showers
19:00 Legend Double Dagger 5.7 2.5 80 34 22 24.1 101.41     Rain Showers
20:00 Legend Double Dagger 5.6 3.6 87 35 20 19.3 101.48     Rain Showers
21:00 Legend Double Dagger 5.7 3.6 86 36 21 24.1 101.55     Rain Showers
22:00 Legend Double Dagger 5.2 4.3 94 1 21 24.1 101.64     LegendNANA
23:00 Legend Double Dagger 5.5 4.2 91 1 30 24.1 101.69     Rain Showers

Notes on Data Quality.

Legend

  • E = Estimated
  • M = Missing
  • NA = Not Available
  • ‡ = Partner data that is not subject to review by the National Climate Archives
Date modified: